TimePDT,TemperatureF,Dew PointF,Humidity,Sea Level PressureIn,VisibilityMPH,Wind Direction,Wind SpeedMPH,Gust SpeedMPH,PrecipitationIn,Events,Conditions,WindDirDegrees,DateUTC
12:15 AM,50.0,26.6,40,30.26,10.0,NNW,3.5,-,N/A,,Clear,340,2013-08-06 07:15:00
12:35 AM,48.2,28.4,46,30.26,10.0,NNW,3.5,-,N/A,,Clear,330,2013-08-06 07:35:00
12:55 AM,51.8,28.4,41,30.26,10.0,NNW,3.5,-,N/A,,Clear,340,2013-08-06 07:55:00
1:15 AM,53.6,28.4,38,30.26,10.0,Calm,Calm,-,N/A,,Scattered Clouds,0,2013-08-06 08:15:00
1:35 AM,55.4,28.4,36,30.25,10.0,Calm,Calm,-,N/A,,Scattered Clouds,0,2013-08-06 08:35:00
1:55 AM,55.4,28.4,36,30.25,10.0,Calm,Calm,-,N/A,,Clear,0,2013-08-06 08:55:00
2:15 AM,51.8,28.4,41,30.25,10.0,NNW,3.5,-,N/A,,Clear,330,2013-08-06 09:15:00
2:35 AM,50.0,28.4,43,30.25,10.0,Calm,Calm,-,N/A,,Clear,0,2013-08-06 09:35:00
2:55 AM,48.2,28.4,46,30.24,10.0,Calm,Calm,-,N/A,,Clear,0,2013-08-06 09:55:00
3:15 AM,46.4,28.4,50,30.25,10.0,NNW,3.5,-,N/A,,Clear,330,2013-08-06 10:15:00
3:35 AM,46.4,28.4,50,30.25,10.0,Calm,Calm,-,N/A,,Clear,0,2013-08-06 10:35:00
3:55 AM,46.4,28.4,50,30.24,10.0,Calm,Calm,-,N/A,,Clear,0,2013-08-06 10:55:00
4:15 AM,50.0,28.4,43,30.25,10.0,Calm,Calm,-,N/A,,Clear,0,2013-08-06 11:15:00
4:35 AM,48.2,28.4,46,30.25,10.0,NNW,3.5,-,N/A,,Clear,340,2013-08-06 11:35:00
4:55 AM,46.4,28.4,50,30.24,10.0,North,4.6,-,N/A,,Clear,10,2013-08-06 11:55:00
5:15 AM,46.4,28.4,50,30.24,10.0,NNW,3.5,-,N/A,,Clear,330,2013-08-06 12:15:00
5:35 AM,44.6,28.4,53,30.25,10.0,Calm,Calm,-,N/A,,Clear,0,2013-08-06 12:35:00
5:55 AM,46.4,28.4,50,30.25,10.0,Calm,Calm,-,N/A,,Clear,0,2013-08-06 12:55:00
6:15 AM,44.6,28.4,53,30.25,10.0,Calm,Calm,-,N/A,,Clear,0,2013-08-06 13:15:00
6:35 AM,44.6,28.4,53,30.26,10.0,Calm,Calm,-,N/A,,Clear,0,2013-08-06 13:35:00
6:55 AM,46.4,28.4,50,30.27,10.0,Calm,Calm,-,N/A,,Clear,0,2013-08-06 13:55:00
7:15 AM,48.2,28.4,46,30.27,10.0,Calm,Calm,-,N/A,,Clear,0,2013-08-06 14:15:00
7:35 AM,51.8,30.2,44,30.27,10.0,Calm,Calm,-,N/A,,Clear,0,2013-08-06 14:35:00
7:55 AM,57.2,30.2,36,30.27,10.0,Calm,Calm,-,N/A,,Clear,0,2013-08-06 14:55:00
8:15 AM,59.0,30.2,34,30.27,10.0,Calm,Calm,-,N/A,,Clear,0,2013-08-06 15:15:00
8:35 AM,62.6,32.0,32,30.27,10.0,Calm,Calm,-,N/A,,Clear,0,2013-08-06 15:35:00
8:55 AM,64.4,32.0,30,30.27,10.0,SSE,3.5,-,N/A,,Clear,150,2013-08-06 15:55:00
9:15 AM,68.0,32.0,26,30.27,10.0,SSE,5.8,-,N/A,,Clear,150,2013-08-06 16:15:00
9:35 AM,69.8,32.0,25,30.27,10.0,SSE,6.9,-,N/A,,Clear,150,2013-08-06 16:35:00
9:55 AM,73.4,30.2,20,30.27,10.0,SE,4.6,-,N/A,,Clear,140,2013-08-06 16:55:00
10:15 AM,75.2,26.6,17,30.27,10.0,South,4.6,-,N/A,,Clear,170,2013-08-06 17:15:00
10:35 AM,77.0,24.8,14,30.26,10.0,SE,5.8,-,N/A,,Clear,140,2013-08-06 17:35:00
10:55 AM,77.0,24.8,14,30.26,10.0,ESE,6.9,-,N/A,,Clear,110,2013-08-06 17:55:00
11:15 AM,78.8,24.8,14,30.26,10.0,ESE,5.8,-,N/A,,Clear,110,2013-08-06 18:15:00
11:35 AM,78.8,21.2,12,30.25,10.0,East,13.8,-,N/A,,Clear,100,2013-08-06 18:35:00
11:55 AM,80.6,19.4,10,30.25,10.0,East,12.7,19.6,N/A,,Clear,100,2013-08-06 18:55:00
12:15 PM,80.6,17.6,10,30.24,10.0,ESE,12.7,20.7,N/A,,Clear,110,2013-08-06 19:15:00
12:35 PM,80.6,19.4,10,30.24,10.0,East,12.7,21.9,N/A,,Scattered Clouds,100,2013-08-06 19:35:00
12:55 PM,80.6,19.4,10,30.24,10.0,East,15.0,20.7,N/A,,Clear,100,2013-08-06 19:55:00
1:15 PM,82.4,17.6,9,30.24,10.0,ESE,8.1,17.3,N/A,,Clear,110,2013-08-06 20:15:00
1:35 PM,82.4,19.4,10,30.23,10.0,ESE,11.5,19.6,N/A,,Clear,110,2013-08-06 20:35:00
1:55 PM,82.4,19.4,10,30.22,10.0,ESE,10.4,17.3,N/A,,Clear,120,2013-08-06 20:55:00
2:15 PM,80.6,21.2,11,30.22,10.0,ESE,9.2,-,N/A,,Clear,120,2013-08-06 21:15:00
2:35 PM,82.4,21.2,10,30.21,10.0,SE,12.7,-,N/A,,Clear,140,2013-08-06 21:35:00
2:55 PM,82.4,21.2,10,30.21,10.0,East,6.9,-,N/A,,Clear,80,2013-08-06 21:55:00
3:15 PM,80.6,23.0,12,30.21,10.0,Calm,Calm,-,N/A,,Scattered Clouds,0,2013-08-06 22:15:00
3:35 PM,78.8,24.8,14,30.20,7.0,West,4.6,17.3,N/A,,Scattered Clouds,280,2013-08-06 22:35:00
3:55 PM,78.8,26.6,15,30.20,7.0,West,15.0,21.9,N/A,,Mostly Cloudy,270,2013-08-06 22:55:00
4:15 PM,77.0,26.6,16,30.19,7.0,West,19.6,28.8,N/A,,Mostly Cloudy,280,2013-08-06 23:15:00
4:35 PM,78.8,24.8,14,30.19,7.0,West,16.1,-,N/A,,Mostly Cloudy,280,2013-08-06 23:35:00
4:55 PM,80.6,24.8,13,30.19,10.0,West,13.8,21.9,N/A,,Mostly Cloudy,270,2013-08-06 23:55:00
5:15 PM,80.6,24.8,13,30.18,10.0,WSW,16.1,21.9,N/A,,Scattered Clouds,250,2013-08-07 00:15:00
5:35 PM,78.8,26.6,15,30.18,10.0,SW,18.4,-,N/A,,Clear,230,2013-08-07 00:35:00
5:55 PM,78.8,26.6,15,30.18,10.0,SSW,20.7,27.6,N/A,,Clear,210,2013-08-07 00:55:00
6:15 PM,77.0,28.4,17,30.17,10.0,SSW,19.6,27.6,N/A,,Clear,200,2013-08-07 01:15:00
6:35 PM,75.2,28.4,18,30.17,10.0,SSW,20.7,27.6,N/A,,Clear,210,2013-08-07 01:35:00
6:55 PM,75.2,28.4,18,30.17,10.0,SSW,21.9,27.6,N/A,,Clear,200,2013-08-07 01:55:00
7:15 PM,73.4,28.4,19,30.17,10.0,SW,20.7,27.6,N/A,,Clear,220,2013-08-07 02:15:00
7:35 PM,71.6,30.2,22,30.18,10.0,SW,12.7,26.5,N/A,,Clear,220,2013-08-07 02:35:00
7:55 PM,71.6,28.4,20,30.19,10.0,West,10.4,18.4,N/A,,Clear,280,2013-08-07 02:55:00
8:15 PM,66.2,30.2,26,30.20,10.0,NW,10.4,16.1,N/A,,Clear,310,2013-08-07 03:15:00
8:35 PM,64.4,30.2,28,30.21,10.0,NW,9.2,-,N/A,,Clear,310,2013-08-07 03:35:00
8:55 PM,62.6,30.2,30,30.21,10.0,NNW,9.2,-,N/A,,Clear,330,2013-08-07 03:55:00
9:15 PM,62.6,30.2,30,30.22,10.0,North,6.9,-,N/A,,Clear,360,2013-08-07 04:15:00
9:35 PM,60.8,30.2,31,30.23,10.0,West,8.1,-,N/A,,Clear,270,2013-08-07 04:35:00
9:55 PM,62.6,30.2,30,30.24,10.0,Calm,Calm,-,N/A,,Clear,0,2013-08-07 04:55:00
10:15 PM,59.0,28.4,31,30.24,10.0,Calm,Calm,-,N/A,,Clear,0,2013-08-07 05:15:00
10:35 PM,57.2,28.4,33,30.24,10.0,Calm,Calm,-,N/A,,Clear,0,2013-08-07 05:35:00
10:55 PM,55.4,28.4,36,30.24,10.0,North,3.5,-,N/A,,Clear,350,2013-08-07 05:55:00
11:15 PM,59.0,30.2,34,30.24,10.0,ESE,4.6,-,N/A,,Clear,120,2013-08-07 06:15:00
11:35 PM,57.2,28.4,33,30.24,10.0,SSE,3.5,-,N/A,,Clear,150,2013-08-07 06:35:00
11:55 PM,55.4,32.0,41,30.24,10.0,ESE,3.5,-,N/A,,Clear,110,2013-08-07 06:55:00